Asheville, NC

1:10 AM EDT on October 17, 2017 (GMT -0400)
Asheville Regional

Weather History for KAVL - January, 2014

Change the Weather History Date:

Monday, January 13, 2014

  Actual Average Record
Temperature  
Mean Temperature 41 °F 37 °F  
Max Temperature 54 °F 47 °F 77 °F (1932)
Min Temperature 27 °F 26 °F -2 °F (1918)
Degree Days  
Heating Degree Days 24 28  
Month to date heating degree days 412 364  
Since 1 July heating degree days 1992 2025  
Cooling Degree Days 0 0  
Month to date cooling degree days 0 0  
Year to date cooling degree days 0 0  
Moisture  
Dew Point 32 °F    
Average Humidity 67    
Maximum Humidity 92    
Minimum Humidity 41    
Precipitation  
Precipitation T in 0.12 in 2.27 in (1892)
Month to date precipitation 2.07 1.48  
Year to date precipitation 2.07 1.48  
Snow  
Snow 0.00 in 0.20 in 3.70 in (1968)
Month to date snowfall 0.2 1.6  
Since 1 July snowfall 0.4 2.6  
Snow Depth 0.00 in    
Sea Level Pressure  
Sea Level Pressure 30.02 in    
Wind  
Wind Speed 6 mph (South)    
Max Wind Speed 18 mph    
Max Gust Speed 25 mph    
Visibility 9 miles    
Events Fog , Rain    
T = Trace of Precipitation, MM = Missing Value Source: NWS Daily Summary

Daily Weather History Graph

Daily Weather History Graph

Search for Another Location

Airport or City:

Trip Planner

Search our weather history database for the weather conditions in past years. The results will help you decide how hot, cold, wet, or windy it might be!

Date:

Astronomy

Jan. 13, 2014 Rise Set
Actual Time 7:39 AM EST 5:38 PM EST
Civil Twilight 7:11 AM EST 6:06 PM EST
Nautical Twilight 6:40 AM EST 6:38 PM EST
Astronomical Twilight 6:09 AM EST 7:08 PM EST
Moon 3:52 PM EST (1/13) 5:27 AM EST (1/13)
Length of Visible Light 10h 55m
Length of Day
9h 59m
Waxing Gibbous, 95% of the Moon is Illuminated
Jan 13
Waxing Gibbous
Jan 15
Full
Jan 24
Last Quarter
Jan 30
New
Feb 6
First Quarter

Hourly Weather History & Observations

Time (EST) Temp. Windchill Dew Point Humidity Pressure Visibility Wind Dir Wind Speed Gust Speed Precip Events Conditions
12:54 AM 30.0 °F - 27.0 °F 88% 30.13 in 10.0 mi Calm Calm - N/A   Clear
1:54 AM 30.0 °F - 27.0 °F 88% 30.12 in 10.0 mi Calm Calm - N/A   Clear
2:54 AM 28.9 °F - 27.0 °F 92% 30.12 in 10.0 mi Calm Calm - N/A   Clear
3:54 AM 28.9 °F - 27.0 °F 92% 30.11 in 10.0 mi Calm Calm - N/A   Clear
4:54 AM 28.0 °F - 26.1 °F 92% 30.11 in 10.0 mi Calm Calm - N/A   Clear
5:48 AM 26.6 °F 20.0 °F 26.6 °F 100% 30.10 in 1.2 mi NNW 5.8 mph - N/A   Partly Cloudy
5:50 AM 26.6 °F 20.0 °F 26.6 °F 100% 30.09 in 0.8 mi NNW 5.8 mph - N/A   Mist
5:54 AM 28.0 °F - 26.1 °F 92% 30.11 in 0.2 mi Calm Calm - N/A Fog Light Freezing Fog
6:07 AM 26.6 °F - 26.6 °F 100% 30.09 in 0.8 mi Calm Calm - N/A   Mist
6:10 AM 28.4 °F - 26.6 °F 93% 30.09 in 1.5 mi Calm Calm - N/A   Scattered Clouds
6:12 AM 28.4 °F - 26.6 °F 93% 30.09 in 3.0 mi Calm Calm - N/A   Scattered Clouds
6:54 AM 28.9 °F - 27.0 °F 92% 30.10 in 10.0 mi Calm Calm - N/A   Clear
7:54 AM 28.0 °F - 27.0 °F 96% 30.09 in 10.0 mi Calm Calm - N/A   Clear
8:54 AM 30.9 °F - 28.9 °F 92% 30.10 in 10.0 mi Calm Calm - N/A   Clear
9:54 AM 35.1 °F - 32.0 °F 89% 30.10 in 10.0 mi Calm Calm - N/A   Clear
10:54 AM 41.0 °F - 34.0 °F 76% 30.08 in 10.0 mi Calm Calm - N/A   Clear
11:54 AM 52.0 °F - 32.0 °F 47% 30.04 in 10.0 mi South 16.1 mph 25.3 mph N/A   Clear
12:54 PM 53.1 °F - 33.1 °F 47% 29.99 in 10.0 mi South 16.1 mph - N/A   Clear
1:54 PM 53.1 °F - 32.0 °F 45% 29.97 in 10.0 mi South 15.0 mph - N/A   Clear
2:54 PM 53.1 °F - 30.9 °F 43% 29.96 in 10.0 mi South 13.8 mph - N/A   Clear
3:54 PM 53.1 °F - 30.0 °F 41% 29.97 in 10.0 mi South 19.6 mph - N/A   Scattered Clouds
4:54 PM 50.0 °F - 30.9 °F 48% 29.98 in 10.0 mi South 9.2 mph - N/A   Scattered Clouds
5:54 PM 48.0 °F - 32.0 °F 54% 29.98 in 10.0 mi South 11.5 mph - N/A   Overcast
6:54 PM 45.0 °F 41.2 °F 36.0 °F 71% 29.97 in 10.0 mi South 6.9 mph - 0.00 in Rain Light Rain
7:54 PM 44.1 °F 39.5 °F 37.0 °F 76% 30.00 in 10.0 mi South 8.1 mph - 0.00 in   Overcast
8:54 PM 43.0 °F 38.8 °F 39.0 °F 86% 30.00 in 10.0 mi South 6.9 mph - 0.00 in Rain Light Rain
9:22 PM 42.8 °F 40.1 °F 39.2 °F 87% 29.96 in 10.0 mi SSE 4.6 mph - 0.00 in Rain Light Rain
9:44 PM 42.8 °F 38.6 °F 39.2 °F 87% 29.97 in 10.0 mi SSE 6.9 mph - 0.00 in   Overcast
9:54 PM 43.0 °F 38.2 °F 39.0 °F 86% 29.97 in 10.0 mi SSE 8.1 mph - 0.00 in   Overcast
10:01 PM 42.8 °F 38.6 °F 39.2 °F 87% 29.96 in 10.0 mi SSE 6.9 mph - N/A   Overcast
10:28 PM 42.8 °F 37.5 °F 39.2 °F 87% 29.94 in 10.0 mi South 9.2 mph - N/A   Overcast
10:40 PM 42.8 °F 38.0 °F 39.2 °F 87% 29.95 in 9.0 mi South 8.1 mph - 0.00 in Rain Light Rain
10:54 PM 42.1 °F 37.1 °F 39.9 °F 92% 29.94 in 10.0 mi South 8.1 mph - 0.00 in Rain Light Rain
11:01 PM 42.8 °F 37.5 °F 39.2 °F 87% 29.94 in 10.0 mi SSE 9.2 mph - 0.00 in Rain Light Rain
11:40 PM 42.8 °F 38.0 °F 39.2 °F 87% 29.91 in 10.0 mi SSE 8.1 mph - 0.00 in   Overcast
11:44 PM 42.8 °F 38.0 °F 39.2 °F 87% 29.91 in 10.0 mi SSE 8.1 mph - 0.00 in   Overcast
11:54 PM 43.0 °F 39.5 °F 39.9 °F 89% 29.89 in 10.0 mi Variable 5.8 mph - 0.00 in   Overcast